AMOS 2

导读

AMOS-2是以色列开发的第二代轻型地球同步通信卫星,由以色列飞机工业公司研制,于2003年12月27日在哈萨克斯坦拜科努尔航天发射场,通过联盟-Fregat运载火箭发射入轨,定点西经4度地球静止轨道。相比初代AMOS-1,它带宽显著提升,配置12个Ku波段转发器,单转发器输出功率达76瓦,可为欧洲、中东及美国东海岸提供广播通信与跨大西洋连接服务,是联盟火箭首个商业地球同步转移轨道发射任务。

基本信息
目录编号:
28132
目录名称:
AMOS 2
国际标识:
2003-059A
轨道中心:
EARTH
卫星名称:
AMOS 2
卫星全名:
--
卫星状态:
在轨 (已飞行8235 天)
发射日期:
2003-12-27 UTC
国别 :
以色列 (IL)
星等 :
--
轨道信息
数据来源 国际轨道数据 AOE轨道数据
星历时间 2026-07-13T20:19:53+0800
19小时前
查看轨道信息
2026-07-13T20:00:00+0800
19小时前
查看轨道信息
半长轴 42411.849km 42411.82km
偏心率 0.0002684 0.0002614
轨道倾角 8.582° 8.582°
近地点辐角 121.678° 120.848°
升交点赤经 62.691° 62.692°
平近点角 53.450° 49.338°
近地点 36022.328km 36022.596km
远地点 36045.096km 36044.77km
周期 1448.740分钟 1448.739分钟
每日圈数 0.993967 0.993968
详细信息
使用方式:
暂无
2D轨道图
3D轨道图
轨道高度分析图
轨道倾角分析图
轨道综合分析图
查看轨道综合分析图